Wind_Speed
17 14 12 14 17 25 31 39 53 61 63 62 67 68 64 62 61 60 59 62 59 60 62 62 63 66 67 64 64 65 64 61 63 60 60 61 60 56 62 66 71 72 75
26 21 21 18 15 17 22 24 27 31 39 45 52 59 60 60 60 60 60 61 59 60 61 63 63 62 61 63 67 67 67 70 69 66 65 62 57 63 66 71 69 74 69
27 31 27 26 23 20 19 17 21 23 27 29 31 38 43 47 52 57 59 62 64 64 64 64 64 65 64 67 66 70 71 68 68 66 63 64 69 74 75 70 64 66 70
28 34 33 32 29 31 30 26 23 23 24 23 24 25 27 31 34 38 44 49 52 54 57 61 65 69 68 69 70 68 66 65 64 61 57 57 59 61 63 63 67 74 75
38 32 41 39 36 36 36 36 31 29 27 27 28 29 26 25 27 29 32 35 36 44 51 55 57 59 60 62 63 63 61 55 55 53 57 59 63 63 67 72 76 79 81
44 39 37 43 44 42 40 38 41 40 38 35 33 34 37 36 36 39 38 36 39 37 35 36 37 41 45 47 49 51 54 57 59 62 64 68 70 73 77 80 83 87 91
47 45 44 40 48 48 45 43 44 44 44 46 45 42 43 40 43 46 45 45 42 47 48 47 49 50 52 54 56 58 61 65 67 72 74 78 81 84 88 90 93 94 95
53 54 52 48 48 49 48 48 46 47 49 51 52 51 50 50 50 50 52 53 50 47 52 54 56 58 59 62 64 67 70 73 76 79 81 84 88 89 92 95 97 97 100
61 58 55 57 56 53 52 52 52 51 55 57 54 54 57 60 61 59 60 59 58 57 57 59 62 64 64 67 69 71 73 75 79 84 88 91 94 97 98 100 102 103 106
68 64 61 60 63 62 57 55 57 58 61 62 61 60 61 62 59 61 62 61 63 65 63 68 68 70 71 74 77 80 82 84 87 89 91 95 97 100 103 104 106 108 110
72 71 71 65 65 69 68 67 67 65 67 66 67 69 71 71 68 70 73 74 74 74 72 72 73 74 77 80 83 87 87 90 96 98 101 102 101 103 106 107 112 115 120
77 76 77 80 74 74 74 75 75 74 71 70 71 74 77 78 77 78 79 78 79 78 76 78 80 83 87 89 92 95 97 98 101 102 101 103 108 112 116 119 119 119 120
87 88 87 88 85 82 81 79 80 80 80 77 79 78 78 79 78 78 80 80 81 83 84 87 88 90 94 99 101 101 102 104 107 110 112 113 115 119 122 118 118 118 116
97 98 97 96 92 88 88 88 87 87 83 80 80 80 81 81 82 84 86 85 89 89 93 97 99 101 104 105 105 104 103 107 110 115 121 118 121 119 118 115 120 117 116
103 103 104 101 99 98 96 94 90 87 88 86 82 84 88 89 89 89 92 92 97 102 102 104 102 102 104 106 104 107 112 117 116 115 117 118 116 116 115 117 113 114 115
87 88 86 85 86 89 89 90 92 91 91 90 91 91 93 92 95 98 97 101 101 103 107 106 108 106 107 109 110 113 114 110 114 118 119 118 118 119 120 118 117 118 117
77 74 71 72 66 69 70 71 79 86 91 92 93 95 96 97 98 104 103 102 106 108 111 111 109 109 110 110 110 109 116 119 119 123 125 124 125 124 122 122 119 118 119
62 57 62 66 69 71 63 63 68 73 82 86 86 86 92 97 96 98 104 110 109 107 103 108 106 110 109 110 115 118 121 122 125 123 125 124 122 120 118 118 119 122 123
69 66 59 58 59 65 57 67 70 71 68 72 74 83 85 87 91 97 98 100 101 104 105 106 112 114 115 119 123 127 128 128 127 126 124 121 119 119 120 123 122 121 119
65 68 72 69 65 59 62 71 72 76 83 82 87 95 96 100 100 102 102 102 105 107 110 115 119 121 122 125 127 129 127 125 126 126 121 121 122 123 122 120 119 114 112
71 72 70 74 79 70 76 80 84 88 89 92 96 101 105 106 104 109 106 107 112 114 117 121 124 126 128 132 129 122 123 125 119 119 122 124 121 119 118 115 113 107 103
76 76 79 78 82 81 90 93 95 96 96 98 102 104 108 110 111 107 107 108 112 116 119 122 125 126 125 123 122 124 121 118 122 123 121 118 117 116 113 108 103 99 95
83 81 87 85 89 93 97 99 101 102 103 99 102 104 106 108 108 109 111 114 116 118 120 121 121 122 121 121 120 121 121 119 118 117 117 116 113 106 102 99 95 90 87
80 83 89 90 93 97 99 98 99 100 101 103 105 106 107 108 110 113 115 118 119 119 120 121 119 117 119 118 116 116 116 117 115 113 109 103 100 96 93 89 86 82 79
76 81 84 86 89 91 94 96 98 98 100 101 103 106 109 112 114 116 117 119 119 118 114 112 115 115 115 115 114 114 112 109 104 99 97 94 90 87 83 80 77 75 72
75 78 81 84 87 89 91 94 96 98 101 104 106 107 107 107 108 108 106 104 104 106 108 110 109 111 112 110 107 103 98 95 92 89 87 85 81 78 76 74 70 67 64
Wind_Direction
285 278 286 296 269 257 251 247 247 246 249 249 252 251 250 252 255 258 261 264 268 272 274 274 278 280 282 284 287 285 284 285 291 286 286 287 291 298 299 299 299 293 292
278 282 277 273 282 285 274 266 255 252 249 249 253 255 256 259 260 262 262 264 265 268 271 273 276 279 279 281 280 280 281 281 284 286 285 288 295 297 300 296 289 290 292
270 275 277 276 272 275 275 275 267 266 264 260 262 261 261 262 265 266 267 267 268 266 268 270 273 276 277 275 275 278 280 280 282 288 293 292 290 286 288 286 286 291 293
287 266 270 271 276 275 277 273 276 277 275 277 275 276 277 278 279 278 276 274 274 275 275 272 271 270 271 273 277 278 279 282 284 285 286 286 285 286 289 288 288 291 293
289 285 264 265 273 267 272 273 279 276 276 277 281 283 285 285 284 289 291 287 287 283 279 279 278 278 279 281 281 282 283 284 284 287 293 294 293 293 290 293 292 292 292
282 284 280 262 263 269 272 272 271 273 279 281 278 280 285 286 288 288 288 299 295 292 293 296 295 290 287 286 286 288 290 292 291 293 289 292 292 292 293 293 294 294 294
278 282 284 281 267 264 267 274 272 278 279 274 277 276 276 279 284 288 290 290 294 297 296 294 292 290 292 289 287 289 288 290 291 291 292 293 294 295 295 294 295 295 295
279 282 280 278 280 270 267 267 268 277 283 285 282 274 275 275 283 283 282 289 288 287 297 297 296 298 298 296 294 293 293 294 295 295 294 294 295 293 293 295 295 294 293
277 278 271 274 280 277 273 270 272 275 281 284 284 286 286 283 282 283 283 287 289 289 291 295 294 292 292 292 294 293 293 293 292 292 293 293 295 295 295 295 296 296 296
277 276 274 274 273 277 278 275 271 273 277 279 281 283 282 280 283 285 289 292 294 291 289 293 293 292 291 291 291 292 292 291 291 291 292 292 293 295 296 296 298 297 297
278 275 273 273 272 272 273 276 278 276 273 277 281 283 283 284 282 283 286 289 291 292 288 288 288 286 287 288 290 290 290 289 291 292 293 294 295 294 296 296 296 295 297
269 270 271 275 275 270 270 272 272 274 274 272 274 277 281 284 285 284 285 287 289 290 285 284 285 286 287 287 288 290 290 289 291 294 295 295 294 297 298 298 297 297 296
268 272 271 272 274 272 267 269 271 272 273 273 272 274 280 281 286 285 283 284 283 286 286 285 286 288 290 291 290 288 289 293 294 294 295 296 294 294 297 297 298 297 296
266 267 269 271 273 268 269 269 271 272 272 271 271 273 277 279 279 279 282 285 284 285 286 288 288 290 292 290 293 295 293 293 292 292 294 296 296 297 296 297 300 297 295
265 266 267 269 271 273 273 272 270 268 269 272 271 273 275 275 276 278 279 281 286 286 287 288 290 290 290 291 290 289 289 289 291 291 295 297 296 297 299 298 297 298 297
266 267 268 268 269 270 270 270 270 270 272 273 272 272 272 273 275 276 276 280 283 284 286 289 290 289 288 289 290 292 293 294 294 295 297 299 299 299 301 300 299 299 299
263 264 265 265 268 267 266 267 269 270 271 272 272 273 274 276 276 277 279 279 280 284 286 285 285 285 286 290 292 289 291 294 295 297 300 299 299 301 300 298 298 298 297
256 256 261 262 258 262 266 267 268 269 268 268 270 272 271 273 276 276 278 280 283 286 283 283 284 283 285 286 287 291 293 294 298 297 297 299 297 296 296 296 296 295 297
257 255 258 259 257 254 255 262 269 271 269 262 265 267 269 273 275 278 280 280 279 281 282 283 283 285 286 290 291 293 294 294 296 296 296 296 296 295 294 293 296 296 298
253 261 259 264 263 252 238 246 249 255 260 262 259 267 269 273 274 278 279 275 276 278 279 281 283 286 286 288 289 291 293 294 294 296 295 295 293 293 296 296 298 300 301
234 243 248 254 256 260 254 257 259 260 261 262 263 265 268 273 274 277 277 274 274 277 279 281 283 285 287 289 290 292 292 294 294 293 293 293 296 296 299 300 299 299 299
239 241 240 245 248 251 255 259 260 260 262 264 265 267 269 271 273 273 274 276 277 279 282 282 282 284 288 289 289 292 294 292 293 293 295 297 299 300 299 299 299 298 298
241 242 242 245 248 251 256 258 260 263 267 268 267 267 269 272 273 275 277 278 280 282 283 285 288 289 290 292 292 291 292 293 295 297 298 299 299 298 297 298 298 297 298
243 245 247 250 252 256 260 263 264 266 268 269 270 272 274 276 276 277 278 279 283 285 286 286 290 291 289 289 291 293 296 297 298 298 297 296 296 297 296 298 299 299 298
257 255 256 259 261 262 265 268 270 271 270 272 273 274 275 277 277 278 281 282 283 286 287 286 286 287 290 292 294 295 296 295 296 296 296 296 296 298 298 298 298 298 297
261 262 263 264 266 268 269 271 273 274 274 275 276 278 279 280 280 280 282 282 283 284 285 287 289 291 292 293 293 294 294 294 295 296 296 297 298 298 298 298 297 298 297
Height
10576 10576 10575 10574 10573 10573 10572 10571 10571 10572 10573 10572 10572 10572 10571 10568 10569 10571 10569 10567 10567 10566 10564 10562 10559 10555 10553 10550 10547 10544 10541 10536 10535 10532 10528 10523 10518 10512 10505 10498 10494 10489 10491
10569 10568 10568 10567 10566 10564 10563 10562 10561 10559 10558 10557 10559 10559 10558 10557 10556 10556 10556 10554 10554 10554 10549 10547 10545 10541 10542 10537 10534 10531 10528 10523 10518 10515 10511 10506 10501 10496 10492 10486 10486 10482 10475
10562 10560 10560 10559 10559 10558 10556 10555 10553 10551 10549 10548 10547 10545 10545 10543 10542 10542 10541 10539 10538 10537 10535 10532 10530 10527 10526 10523 10519 10517 10512 10507 10501 10496 10493 10488 10486 10484 10482 10477 10472 10466 10458
10552 10552 10550 10549 10550 10549 10548 10547 10545 10543 10541 10540 10538 10536 10534 10532 10531 10529 10528 10526 10525 10523 10520 10518 10516 10512 10510 10507 10504 10500 10496 10492 10488 10484 10481 10476 10472 10470 10465 10461 10456 10447 10440
10541 10541 10540 10540 10540 10538 10538 10537 10537 10536 10534 10532 10530 10528 10526 10524 10521 10519 10517 10515 10513 10510 10508 10505 10502 10499 10496 10492 10489 10486 10483 10479 10475 10470 10466 10461 10455 10453 10447 10443 10436 10428 10421
10529 10529 10529 10529 10528 10527 10527 10527 10527 10525 10524 10523 10519 10518 10516 10514 10512 10509 10507 10506 10503 10500 10497 10493 10490 10486 10483 10479 10476 10473 10469 10465 10459 10454 10448 10442 10438 10434 10427 10420 10415 10408 10400
10516 10516 10517 10517 10516 10514 10515 10515 10514 10512 10512 10510 10509 10507 10505 10503 10500 10497 10494 10493 10492 10488 10484 10481 10477 10473 10469 10465 10460 10456 10451 10447 10442 10436 10431 10424 10419 10414 10407 10401 10393 10385 10377
10502 10502 10502 10502 10503 10501 10501 10501 10500 10498 10496 10494 10494 10493 10492 10490 10487 10482 10479 10480 10477 10474 10470 10465 10461 10457 10453 10448 10443 10439 10435 10430 10425 10418 10412 10403 10396 10393 10386 10378 10370 10363 10354
10486 10486 10485 10486 10487 10486 10487 10486 10484 10483 10481 10480 10479 10477 10474 10472 10470 10466 10463 10461 10458 10456 10453 10449 10446 10442 10438 10433 10427 10422 10417 10411 10405 10399 10392 10385 10377 10369 10361 10353 10345 10337 10329
10470 10469 10469 10470 10470 10470 10470 10471 10470 10468 10465 10463 10463 10461 10457 10455 10453 10448 10444 10443 10442 10438 10434 10431 10427 10423 10418 10413 10407 10402 10398 10392 10384 10378 10372 10364 10355 10346 10337 10328 10318 10310 10300
10453 10451 10449 10452 10454 10453 10453 10453 10452 10453 10451 10448 10445 10442 10438 10437 10438 10433 10428 10425 10422 10420 10417 10413 10409 10404 10399 10393 10388 10382 10376 10369 10362 10354 10347 10337 10328 10321 10311 10301 10291 10282 10273
10430 10429 10431 10431 10433 10434 10434 10434 10434 10434 10434 10433 10428 10424 10419 10416 10416 10415 10411 10407 10402 10399 10397 10393 10388 10382 10376 10371 10365 10356 10350 10345 10338 10330 10320 10312 10303 10294 10283 10274 10264 10253 10241
10408 10406 10408 10408 10410 10412 10413 10412 10412 10413 10413 10413 10409 10407 10403 10401 10396 10392 10389 10385 10381 10377 10374 10368 10364 10358 10351 10344 10339 10334 10327 10316 10308 10301 10292 10284 10275 10266 10256 10244 10235 10222 10211
10385 10385 10385 10385 10387 10387 10388 10389 10389 10390 10390 10390 10388 10386 10383 10380 10377 10373 10368 10364 10359 10355 10350 10345 10340 10334 10327 10320 10313 10302 10297 10291 10282 10274 10265 10257 10245 10235 10224 10212 10203 10190 10180
10361 10361 10363 10365 10365 10365 10365 10366 10366 10366 10366 10366 10365 10364 10362 10357 10353 10350 10345 10341 10337 10329 10325 10320 10315 10308 10302 10296 10288 10282 10275 10265 10257 10246 10235 10226 10215 10204 10194 10183 10170 10161 10150
10334 10335 10338 10341 10342 10342 10344 10343 10342 10342 10343 10343 10341 10340 10337 10334 10329 10324 10321 10319 10313 10307 10300 10295 10288 10282 10275 10269 10262 10252 10241 10234 10225 10216 10205 10195 10185 10174 10162 10150 10138 10127 10117
10310 10311 10312 10318 10320 10321 10320 10320 10320 10321 10320 10319 10318 10314 10310 10308 10303 10298 10296 10293 10286 10282 10275 10269 10260 10253 10246 10240 10231 10223 10214 10206 10194 10185 10172 10162 10153 10141 10129 10119 10106 10095 10085
10289 10292 10294 10298 10301 10304 10307 10302 10300 10296 10295 10295 10292 10289 10285 10283 10279 10275 10270 10265 10261 10254 10246 10238 10233 10226 10219 10210 10201 10194 10182 10172 10164 10153 10142 10133 10122 10111 10099 10087 10075 10063 10052
10266 10271 10276 10277 10279 10281 10283 10284 10281 10276 10274 10271 10269 10265 10263 10259 10254 10249 10244 10239 10233 10228 10220 10211 10203 10195 10188 10180 10171 10161 10152 10143 10133 10123 10112 10100 10090 10078 10066 10053 10042 10029 10018
10259 10252 10255 10255 10256 10260 10261 10260 10256 10253 10249 10248 10245 10240 10237 10234 10229 10223 10217 10211 10204 10197 10191 10184 10175 10168 10159 10151 10142 10133 10122 10112 10101 10091 10079 10068 10055 10042 10032 10020 10008 9996 9983
10234 10238 10238 10238 10238 10237 10236 10235 10234 10231 10228 10224 10221 10216 10213 10206 10201 10196 10189 10184 10177 10170 10163 10155 10148 10138 10130 10121 10112 10100 10090 10079 10068 10056 10044 10032 10022 10009 9998 9985 9974 9961 9951
10215 10213 10214 10215 10215 10216 10213 10209 10208 10206 10202 10199 10194 10189 10184 10179 10174 10168 10161 10155 10148 10141 10134 10125 10116 10109 10101 10089 10078 10069 10058 10046 10033 10022 10010 9999 9988 9976 9964 9952 9942 9931 9922
10194 10195 10195 10193 10191 10190 10188 10185 10182 10179 10175 10172 10168 10163 10157 10151 10146 10140 10133 10127 10119 10110 10102 10095 10086 10076 10067 10057 10045 10034 10022 10011 9999 9989 9979 9967 9956 9945 9934 9923 9914 9904 9896
10172 10173 10173 10171 10168 10167 10163 10160 10156 10153 10149 10144 10139 10134 10129 10122 10116 10110 10103 10095 10088 10081 10071 10060 10053 10043 10034 10023 10012 10000 9990 9979 9969 9960 9949 9938 9927 9917 9907 9897 9888 9880 9872
10149 10148 10145 10143 10141 10139 10136 10133 10129 10125 10121 10116 10110 10105 10098 10092 10086 10080 10073 10065 10056 10049 10041 10030 10020 10011 10002 9991 9982 9972 9962 9951 9942 9933 9922 9911 9901 9891 9881 9873 9866 9859 9851
10124 10122 10121 10119 10116 10113 10110 10106 10102 10097 10091 10086 10081 10075 10069 10062 10055 10048 10042 10033 10025 10018 10009 10000 9989 9981 9972 9963 9953 9944 9934 9924 9914 9904 9894 9886 9877 9868 9860 9853 9845 9838 9832